Retour au catalogue

BB4

ActifSciencePO
NORAD 57757·PAYLOAD·🇺🇸 United States

Lancé Sep 2, 2023 depuis Vandenberg Space Force Base

Loading…

Prochains Passages (prochaines 24 heures)

TLE

FraisSource: Space-Track

Époque: Sep 13, 2026, 05:41 UTC

1 57757U 23133B   26256.23741088  .00001012  00000-0  12828-3 0  9995
2 57757  81.0013 263.9582 0009480  74.6081 285.6175 14.81059069154342

Suivez BB4 en temps réel avec AllMySat

Download on the App Store